User: anonymous   Login
Location: Raleigh
(35.7720°N, 78.6390°W)
Time: 13:13:19
(UTC-05:00)
Language:

JAS-2 - Orbit

View from above orbital plane
View from above orbital plane
View from above satellite
View from above satellite

Ground track
Ground track

The orbit data is extracted from the following two-line orbital elements,

1 24278U 96046B   17021.16136512 -.00000017  00000-0  19987-4 0  9991
2 24278  98.5826 283.8264 0350452 358.3957   1.6032 13.53074169  8992
Epoch (UTC): 21 January 2017 03:52:21
Eccentricity: 0.0350452
inclination: 98.5826°
perigee height: 800 km
apogee height: 1321 km
right ascension of ascending node: 283.8264°
argument of perigee: 358.3957°
revolutions per day: 13.53074169
mean anomaly at epoch: 1.6032°
orbit number at epoch: 899

The dashed part of the orbit path shows where the satellite is in the earth's shadow,  

DLR